z

Olsztyn

Wyniki

Bieg 5

13.02.2016 Dystans: 5 km Rodzaj: Bieg główny
Pobierz wyniki:
Miejsce Nr Nazwisko Imię Miasto Klub Rocznik Kategoria Czas netto Czas brutto
1 113 LIPNICKA KATARZYNA Ostróda 1982 K30 00:22:34 00:22:39
2 98 ZIELIŃSKA MAGDALENA olsztyn TEAM KOPEĆ 1982 K30 00:22:54 00:22:56
3 365 ANDRUSZKIEWICZ-ĆWIK NATALIA Olsztyn 12TRI.PL DRUŻYNA WILKA 1985 K30 00:23:04 00:23:09
4 377 BRONAKOWSKA DOROTA Olsztyn 1982 K30 00:23:38 00:23:45
5 78 GAWRYŚ KATARZYNA Olsztyn 1981 K30 00:24:24 00:24:40
6 231 DĄBKOWSKA-WILCZEK MARTA Olsztyn 12TRI.PL DRUŻYNA WILKA 1983 K30 00:24:27 00:24:49
7 143 OLEJNIK BARBARA olsztyn 1980 K30 00:24:43 00:24:54
8 616 WORONIEC ALICJA Lidzbark Warmiński TEAM KOPEĆ 1981 K30 00:26:39 00:26:53
9 225 MOROZ KATARZYNA Olsztyn 1978 K30 00:27:07 00:27:21
10 276 ANTCZAK EDYTA Ostróda OSTRÓDZKA GRUPA BIEGOWA 1981 K30 00:27:07 00:27:21
11 389 PODLEWSKA ANNA OLSZTYN FITNESS CLUB SYLWETKA 1980 K30 00:27:12 00:27:23
12 581 OPRZYŃSKA AGNIESZKA Olsztyn 1981 K30 00:27:31 00:27:51
13 482 KUCZYŃSKA KINGA Mrągowo 1985 K30 00:27:33 00:27:47
14 680 KUMOROWSKA KATARZYNA TRĘKUSEK 1981 K30 00:27:51 00:28:14
15 575 KAROLEWSKA ANNA Olsztyn 1985 K30 00:27:55 00:28:07
16 443 GRĄDZKA IZABELA Barczewo BARCZEWO BIEGA 1981 K30 00:28:17 00:28:32
17 571 JANKOWSKA PAULINA Olsztyn TEAM BEZ NAZWY/KW OLSZTYN 1985 K30 00:28:24 00:28:48
18 481 DOMAŃSKA EWA Olsztyn 1984 K30 00:28:41 00:29:05
19 94 PANKOWSKA KATARZYNA Iława ORKAMASTERS IŁAWA 1983 K30 00:29:05 00:29:23
20 212 SIEŃKO MAŁGORZATA Olsztyn TEAM BEZ NAZWY/KW OLSZTYN 1978 K30 00:29:08 00:29:32
21 527 MAŃKOWSKA-SALIK IZABELA Olsztyn 1978 K30 00:29:33 00:29:48
22 522 LACHOWICZ EMILIA Olsztyn VEGE RUNNERS 1982 K30 00:29:41 00:29:56
23 10 NIEWDZIĘCZNA BARBARA Olsztyn PSZCZÓŁKOWSKI TEAM 1976 K30 00:29:43 00:30:07
24 68 DADASIEWICZ MARZENA Olsztyn 1979 K30 00:30:24 00:30:42
25 248 KRAWIEC AGNIESZKA Olsztyn SĄD OKRĘGOWY W OLSZTYNIE 1977 K30 00:30:41 00:31:08
26 410 BARTNIKOWSKA OLGA Olsztyn KINETIC TEAM 1977 K30 00:31:26 00:31:52
27 392 POTERAŁA-PASZKO KATARZYNA Olsztyn FITNESS CLUB SYLWETKA 1983 K30 00:32:37 00:32:48
28 684 LEWANDOWSKA BEATA Barczewo BARCZEWO BIEGA 1978 K30 00:34:41 00:35:09
29 677 ZELTZER KATARZYNA OLSZTYN 1977 K30 00:38:21 00:38:50

Sponsor tytularny

Partnerzy generalni